User: anonymous
Location: The D'Auria's Ocala Star Observatory
(29.0276°N, 82.1742°W)
Time: 22:11:56
(UTC-04:00)
Language:

Okean 3 Rocket - Orbit

View from above orbital plane
View from above orbital plane
View from above satellite
View from above satellite

Ground track
Ground track

The orbit data is extracted from the following two-line orbital elements,

1 21398U 91039B   14263.61267789  .00000335  00000-0  41905-4 0  8552
2 21398 082.5208 077.3829 0021080 217.9451 210.3925 14.79209497255967
Epoch (UTC): 20 September 2014 14:42:15
Eccentricity: 0.0021080
inclination: 82.5208°
perigee height: 617 km
apogee height: 646 km
right ascension of ascending node: 77.3829°
argument of perigee: 217.9451°
revolutions per day: 14.79209497
mean anomaly at epoch: 210.3925°
orbit number at epoch: 25596

The dashed part of the orbit path shows where the satellite is in the earth's shadow,  

DLR